Location: San Gennaro Vesuviano
(40.8833°N, 14.5333°E)
Time: 10:28:17
(UTC+00:00)

Cosmos 1844 Rocket - Pass Details

Date: 22 April 2021
Orbit: 825 x 844 km, 71.0° (Epoch: 10 May)

Event Time Altitude Azimuth Distance (km) Brightness Sun altitude
Exits shadow 22:30:57 27° 31° (NNE) 1,537 4.4 -36.2°
Drops below altitude 10° 22:33:24 10° 27° (NNE) 2,434 5.6 -36.2°
Sets 22:35:51 0° 26° (NNE) 3,373 6.5 -36.3°
